• In United Kingdom
  • List of Countries
  • For 7 days
  • Water Temperature
  • Satellite Maps
  • Weather Map
  • Weather Widgets
  • user-avatar
    Login

    Hourly Weather Wojtostwo

    Today, 22 June, Friday

    Time Temperature Precipitation Wind Pressure Humidity
    00:00 +10°C° 0 mm 5 mps 751 mmHg 70%
    01:00 +9°C° 0 mm 3 mps 751 mmHg 74%
    02:00 +8°C° 0 mm 4 mps 752 mmHg 75%
    03:00 +8°C° 0 mm 4 mps 752 mmHg 77%
    04:00 +8°C° 0 mm 4 mps 752 mmHg 78%
    05:00 +9°C° 0 mm 5 mps 752 mmHg 75%
    06:00 +10°C° 0 mm 6 mps 752 mmHg 71%
    07:00 +11°C° 0 mm 7 mps 752 mmHg 68%
    08:00 +12°C° 0.1 mm 7 mps 753 mmHg 66%
    09:00 +14°C° 0.1 mm 7 mps 753 mmHg 63%
    10:00 +15°C° 0.1 mm 7 mps 753 mmHg 61%
    11:00 +15°C° 0.4 mm 6 mps 753 mmHg 60%
    12:00 +15°C° 0.4 mm 6 mps 753 mmHg 58%
    13:00 +16°C° 0.4 mm 6 mps 753 mmHg 57%
    14:00 +16°C° 0.3 mm 6 mps 752 mmHg 57%
    15:00 +16°C° 0.3 mm 5 mps 752 mmHg 56%
    16:00 +17°C° 0.3 mm 5 mps 752 mmHg 56%
    17:00 +17°C° 0.1 mm 4 mps 752 mmHg 60%
    18:00 +16°C° 0.1 mm 3 mps 752 mmHg 65%
    19:00 +16°C° 0.1 mm 3 mps 753 mmHg 70%
    20:00 +13°C° 0 mm 3 mps 753 mmHg 74%
    21:00 +12°C° 0 mm 3 mps 753 mmHg 78%
    22:00 +12°C° 0 mm 2 mps 753 mmHg 82%
    23:00 +10°C° 0 mm 3 mps 753 mmHg 84%

    Tomorrow, 23 June, Saturday

    Time Temperature Precipitation Wind Pressure Humidity
    00:00 +10°C° 0 mm 3 mps 753 mmHg 86%
    01:00 +9°C° 0 mm 3 mps 753 mmHg 88%
    02:00 +8°C° 0 mm 4 mps 753 mmHg 88%
    03:00 +8°C° 0 mm 4 mps 753 mmHg 89%
    04:00 +8°C° 0 mm 4 mps 753 mmHg 90%
    05:00 +9°C° 0.1 mm 5 mps 753 mmHg 87%
    06:00 +10°C° 0.1 mm 5 mps 753 mmHg 84%
    07:00 +10°C° 0.1 mm 6 mps 753 mmHg 80%
    08:00 +11°C° 0.1 mm 6 mps 753 mmHg 76%
    09:00 +13°C° 0.1 mm 6 mps 753 mmHg 72%
    10:00 +13°C° 0.1 mm 6 mps 753 mmHg 68%
    11:00 +14°C° 0.1 mm 6 mps 753 mmHg 68%
    12:00 +14°C° 0.1 mm 6 mps 753 mmHg 67%
    13:00 +14°C° 0.1 mm 6 mps 753 mmHg 67%
    14:00 +15°C° 0.1 mm 6 mps 753 mmHg 66%
    15:00 +16°C° 0.1 mm 6 mps 753 mmHg 66%
    16:00 +17°C° 0.1 mm 6 mps 752 mmHg 65%
    17:00 +16°C° 0.2 mm 5 mps 752 mmHg 70%
    18:00 +15°C° 0.2 mm 5 mps 752 mmHg 75%
    19:00 +14°C° 0.2 mm 4 mps 752 mmHg 80%
    20:00 +13°C° 0 mm 4 mps 753 mmHg 82%
    21:00 +12°C° 0 mm 4 mps 753 mmHg 84%
    22:00 +12°C° 0 mm 4 mps 753 mmHg 86%
    23:00 +11°C° 0 mm 4 mps 753 mmHg 88%

    Day after tomorrow, 24 June, Sunday

    Time Temperature Precipitation Wind Pressure Humidity
    00:00 +11°C° 0 mm 4 mps 753 mmHg 90%
    01:00 +10°C° 0 mm 4 mps 753 mmHg 92%
    02:00 +10°C° 0 mm 3 mps 753 mmHg 93%
    03:00 +10°C° 0 mm 3 mps 753 mmHg 95%
    04:00 +10°C° 0 mm 3 mps 753 mmHg 97%
    05:00 +11°C° 0 mm 4 mps 753 mmHg 94%
    06:00 +12°C° 0 mm 4 mps 753 mmHg 91%
    07:00 +13°C° 0 mm 4 mps 754 mmHg 88%
    08:00 +14°C° 0.1 mm 5 mps 754 mmHg 83%
    09:00 +15°C° 0.1 mm 5 mps 754 mmHg 77%
    10:00 +16°C° 0.1 mm 5 mps 754 mmHg 71%
    11:00 +17°C° 0.5 mm 5 mps 754 mmHg 69%
    12:00 +19°C° 0.5 mm 5 mps 754 mmHg 67%
    13:00 +19°C° 0.5 mm 5 mps 754 mmHg 64%
    14:00 +19°C° 0.8 mm 4 mps 753 mmHg 65%
    15:00 +19°C° 0.8 mm 4 mps 753 mmHg 66%
    16:00 +19°C° 0.8 mm 4 mps 753 mmHg 67%
    17:00 +18°C° 1.2 mm 3 mps 753 mmHg 72%
    18:00 +17°C° 1.2 mm 3 mps 753 mmHg 77%
    19:00 +16°C° 1.2 mm 2 mps 753 mmHg 82%
    20:00 +15°C° 0.1 mm 2 mps 753 mmHg 85%
    21:00 +14°C° 0.1 mm 2 mps 754 mmHg 87%
    22:00 +13°C° 0.1 mm 2 mps 754 mmHg 89%
    23:00 +13°C° 0 mm 2 mps 754 mmHg 90%

    25 June, Monday

    Time Temperature Precipitation Wind Pressure Humidity
    00:00 +12°C° 0 mm 2 mps 754 mmHg 91%
    01:00 +12°C° 0 mm 2 mps 754 mmHg 92%
    02:00 +10°C° 0 mm 2 mps 755 mmHg 91%
    03:00 +10°C° 0 mm 2 mps 755 mmHg 90%
    04:00 +11°C° 0 mm 1 mps 755 mmHg 89%
    05:00 +13°C° 0 mm 1 mps 755 mmHg 84%
    06:00 +14°C° 0 mm 1 mps 755 mmHg 79%
    07:00 +16°C° 0 mm 1 mps 756 mmHg 74%
    08:00 +17°C° 0 mm 2 mps 756 mmHg 68%
    09:00 +19°C° 0 mm 2 mps 756 mmHg 62%
    10:00 +20°C° 0 mm 2 mps 756 mmHg 56%
    11:00 +21°C° 0 mm 2 mps 756 mmHg 54%
    12:00 +21°C° 0 mm 2 mps 756 mmHg 52%
    13:00 +23°C° 0 mm 2 mps 756 mmHg 50%
    14:00 +23°C° 0 mm 2 mps 756 mmHg 49%
    15:00 +23°C° 0 mm 2 mps 756 mmHg 48%
    16:00 +24°C° 0 mm 2 mps 756 mmHg 47%
    17:00 +23°C° 0 mm 1 mps 757 mmHg 52%
    18:00 +22°C° 0 mm 1 mps 757 mmHg 56%
    19:00 +21°C° 0 mm 1 mps 757 mmHg 61%
    20:00 +20°C° 0 mm 1 mps 757 mmHg 62%
    21:00 +19°C° 0 mm 1 mps 758 mmHg 64%
    22:00 +16°C° 0 mm 1 mps 758 mmHg 66%
    23:00 +16°C° 0 mm 1 mps 758 mmHg 68%

    26 June, Tuesday

    Time Temperature Precipitation Wind Pressure Humidity
    00:00 +15°C° 0 mm 1 mps 758 mmHg 71%
    01:00 +14°C° 0 mm 1 mps 758 mmHg 74%
    02:00 +14°C° 0 mm 1 mps 758 mmHg 76%
    03:00 +14°C° 0 mm 1 mps 758 mmHg 78%
    04:00 +13°C° 0 mm 1 mps 758 mmHg 80%
    05:00 +15°C° 0 mm 1 mps 758 mmHg 75%
    06:00 +17°C° 0 mm 2 mps 758 mmHg 71%
    07:00 +18°C° 0 mm 2 mps 758 mmHg 66%
    08:00 +20°C° 0 mm 2 mps 758 mmHg 61%
    09:00 +21°C° 0 mm 3 mps 758 mmHg 57%
    10:00 +24°C° 0 mm 3 mps 758 mmHg 52%
    11:00 +24°C° 0 mm 3 mps 758 mmHg 51%
    12:00 +25°C° 0 mm 3 mps 758 mmHg 50%
    13:00 +25°C° 0 mm 3 mps 758 mmHg 49%
    14:00 +25°C° 0 mm 3 mps 758 mmHg 50%
    15:00 +25°C° 0 mm 3 mps 758 mmHg 52%
    16:00 +25°C° 0 mm 3 mps 757 mmHg 53%
    17:00 +25°C° 0 mm 3 mps 757 mmHg 57%
    18:00 +24°C° 0 mm 2 mps 757 mmHg 61%
    19:00 +23°C° 0 mm 2 mps 757 mmHg 66%
    20:00 +20°C° 0 mm 2 mps 758 mmHg 69%
    21:00 +19°C° 0 mm 2 mps 758 mmHg 71%
    22:00 +17°C° 0 mm 2 mps 758 mmHg 74%
    23:00 +16°C° 0 mm 2 mps 758 mmHg 76%

    27 June, Wednesday

    Time Temperature Precipitation Wind Pressure Humidity
    00:00 +16°C° 0 mm 2 mps 758 mmHg 78%
    01:00 +15°C° 0 mm 2 mps 758 mmHg 80%
    02:00 +14°C° 0 mm 2 mps 758 mmHg 82%
    03:00 +14°C° 0 mm 2 mps 758 mmHg 83%
    04:00 +14°C° 0 mm 2 mps 758 mmHg 84%
    05:00 +15°C° 0 mm 2 mps 759 mmHg 79%
    06:00 +17°C° 0 mm 2 mps 759 mmHg 73%
    07:00 +19°C° 0 mm 2 mps 759 mmHg 68%
    08:00 +21°C° 0 mm 3 mps 759 mmHg 62%
    09:00 +22°C° 0 mm 4 mps 759 mmHg 56%
    10:00 +25°C° 0 mm 4 mps 758 mmHg 50%
    11:00 +25°C° 0 mm 5 mps 758 mmHg 49%
    12:00 +26°C° 0 mm 5 mps 758 mmHg 47%
    13:00 +27°C° 0 mm 5 mps 758 mmHg 45%
    14:00 +26°C° 0 mm 5 mps 758 mmHg 46%
    15:00 +26°C° 0 mm 5 mps 758 mmHg 46%
    16:00 +26°C° 0 mm 6 mps 758 mmHg 46%
    17:00 +25°C° 0 mm 5 mps 758 mmHg 52%
    18:00 +22°C° 0 mm 5 mps 758 mmHg 58%
    19:00 +21°C° 0 mm 4 mps 758 mmHg 64%
    20:00 +19°C° 0 mm 4 mps 758 mmHg 69%
    21:00 +18°C° 0 mm 4 mps 759 mmHg 73%
    22:00 +16°C° 0 mm 3 mps 759 mmHg 78%
    23:00 +14°C° 0 mm 3 mps 759 mmHg 82%
    Show more